Back to catalog

STARLINK-2698

AliveCommunicationsVLEO
NORAD 48458·PAYLOAD·🇺🇸 United States

Launched May 9, 2021 from Cape Canaveral Space Force Station

Loading…

Next Passes (next 24 hours)

TLE

FreshSource: CelesTrak SupGP

Epoch: Sep 14, 2026, 12:59 UTC

1 48458C 21040AG  26257.54145833 -.00018504  00000+0 -59408-3 0  2576
2 48458  53.1596  19.8940 0001066  83.9412 131.1077 15.31763444    10

Track STARLINK-2698 in real time with AllMySat

Download on the App Store